This is the latest recevied weather packets stored in our database for station/object KC4JIR. If no packets are shown the sender has not sent any weather packets the latest 10 day(s).
| Time | Temp. | Humidity | Pressure | Rain* | Wind** | Luminosity | Snow |
|---|---|---|---|---|---|---|---|
| 1778004805 | 27.78° C | 47% | 1013.7 hPa | 0 mm | - | 734 W/m² | - |
| 1778004502 | 27.22° C | 53% | 1013.4 hPa | 0 mm | - | 221 W/m² | - |
| 1778004198 | 27.22° C | 50% | 1013.6 hPa | 0 mm | - | 748 W/m² | - |
| 1778003895 | 27.22° C | 47% | 1013.5 hPa | 0 mm | - | 728 W/m² | - |
| 1778003591 | 27.22° C | 47% | 1013.7 hPa | 0 mm | - | 548 W/m² | - |
| 1778003288 | 26.67° C | 51% | 1013.8 hPa | 0 mm | - | 736 W/m² | - |
| 1778002986 | 26.11° C | 50% | 1013.7 hPa | 0 mm | - | 636 W/m² | - |
| 1778002681 | 26.67° C | 48% | 1013.7 hPa | 0 mm | - | 138 W/m² | - |
| 1778002378 | 26.67° C | 47% | 1013.9 hPa | 0 mm | - | 804 W/m² | - |
| 1778002075 | 26.67° C | 45% | 1013.8 hPa | 0 mm | - | 802 W/m² | - |
| 1778001772 | 26.11° C | 47% | 1013.8 hPa | 0 mm | - | 732 W/m² | - |
| 1778001467 | 25.56° C | 49% | 1014.1 hPa | 0 mm | - | 699 W/m² | - |
| 1778001164 | 26.67° C | 51% | 1013.9 hPa | 0 mm | - | 122 W/m² | - |
| 1778000861 | 27.22° C | 50% | 1014.1 hPa | 0 mm | - | 498 W/m² | - |
| 1778000558 | 26.11° C | 52% | 1013.9 hPa | 0 mm | - | 830 W/m² | - |
| 1778000253 | 26.67° C | 52% | 1014 hPa | 0 mm | - | 828 W/m² | - |
| 1777999949 | 26.11° C | 53% | 1014.4 hPa | 0 mm | - | 766 W/m² | - |
| 1777999644 | 26.11° C | 53% | 1014.1 hPa | 0 mm | - | 742 W/m² | - |
| 1777999342 | 26.67° C | 52% | 1014.1 hPa | 0 mm | - | 727 W/m² | - |
| 1777999040 | 26.67° C | 55% | 1014.1 hPa | 0 mm | - | 751 W/m² | - |
| 1777998739 | 26.11° C | 51% | 1014.4 hPa | 0 mm | - | 711 W/m² | - |
| 1777998435 | 25.56° C | 52% | 1014.5 hPa | 0 mm | - | 737 W/m² | - |
| 1777998132 | 26.11° C | 53% | 1014.5 hPa | 0 mm | - | 725 W/m² | - |
| 1777997829 | 25.56° C | 55% | 1014.5 hPa | 0 mm | - | 672 W/m² | - |
| 1777997527 | 25.56° C | 56% | 1014.5 hPa | 0 mm | - | 698 W/m² | - |
* Rain latest hour (hover to see other rain measurements)
** Current wind speed in m/s (hover to see current wind gust speed)